Time,TemperatureF,DewpointF,PressureIn,WindDirection,WindDirectionDegrees,WindSpeedMPH,WindSpeedGustMPH,Humidity,HourlyPrecipIn,Conditions,Clouds,dailyrainin,SolarRadiationWatts/m^2,SoftwareType,DateUTC
2013-03-16 00:02:00,71.0,41.0,-100.00,NW,317,7.0,13.0,34,0.00,,,0.00,1.000000,,2013-03-16 07:02:00,
2013-03-16 00:11:00,71.0,41.0,-100.00,NW,317,7.0,13.0,34,0.00,,,0.00,1.000000,,2013-03-16 07:11:00,
2013-03-16 00:42:00,70.0,41.0,-100.00,South,173,8.0,12.0,35,0.00,,,0.00,1.000000,,2013-03-16 07:42:00,
2013-03-16 00:52:00,70.0,41.0,-100.00,South,173,8.0,12.0,35,0.00,,,0.00,1.000000,,2013-03-16 07:52:00,
2013-03-16 01:02:00,70.0,41.0,-100.00,South,173,8.0,12.0,35,0.00,,,0.00,1.000000,,2013-03-16 08:02:00,
2013-03-16 01:12:00,70.0,41.0,-100.00,South,173,8.0,12.0,35,0.00,,,0.00,1.000000,,2013-03-16 08:12:00,
2013-03-16 01:42:00,70.0,39.0,-100.00,SE,127,8.0,10.0,32,0.00,,,0.00,1.000000,,2013-03-16 08:42:00,
2013-03-16 01:52:00,70.0,39.0,-100.00,SE,127,8.0,10.0,32,0.00,,,0.00,1.000000,,2013-03-16 08:52:00,
2013-03-16 02:01:00,70.0,39.0,-100.00,SE,127,8.0,10.0,32,0.00,,,0.00,1.000000,,2013-03-16 09:01:00,
2013-03-16 02:11:00,70.0,39.0,-100.00,SE,127,8.0,10.0,32,0.00,,,0.00,1.000000,,2013-03-16 09:11:00,
2013-03-16 02:42:00,68.0,39.0,-100.00,SE,131,8.0,11.0,35,0.00,,,0.00,1.000000,,2013-03-16 09:42:00,
2013-03-16 02:53:00,68.0,39.0,-100.00,SE,131,8.0,11.0,35,0.00,,,0.00,1.000000,,2013-03-16 09:53:00,
2013-03-16 03:03:00,68.0,39.0,-100.00,SE,131,8.0,11.0,35,0.00,,,0.00,1.000000,,2013-03-16 10:03:00,
2013-03-16 03:12:00,68.0,39.0,-100.00,SE,131,8.0,11.0,35,0.00,,,0.00,1.000000,,2013-03-16 10:12:00,
2013-03-16 03:42:00,67.0,38.0,-100.00,SE,135,8.0,10.0,34,0.00,,,0.00,1.000000,,2013-03-16 10:42:00,
2013-03-16 03:53:00,67.0,38.0,-100.00,SE,135,8.0,10.0,34,0.00,,,0.00,1.000000,,2013-03-16 10:53:00,
2013-03-16 04:03:00,67.0,38.0,-100.00,SE,135,8.0,10.0,34,0.00,,,0.00,1.000000,,2013-03-16 11:03:00,
2013-03-16 04:12:00,67.0,38.0,-100.00,SE,135,8.0,10.0,34,0.00,,,0.00,1.000000,,2013-03-16 11:12:00,
2013-03-16 04:43:00,63.0,38.0,-100.00,SSE,165,5.0,10.0,39,0.00,,,0.00,1.000000,,2013-03-16 11:43:00,
2013-03-16 04:52:00,63.0,38.0,-100.00,SSE,165,5.0,10.0,39,0.00,,,0.00,1.000000,,2013-03-16 11:52:00,
2013-03-16 05:02:00,63.0,38.0,-100.00,SSE,165,5.0,10.0,39,0.00,,,0.00,1.000000,,2013-03-16 12:02:00,
2013-03-16 05:12:00,63.0,38.0,-100.00,SSE,165,5.0,10.0,39,0.00,,,0.00,1.000000,,2013-03-16 12:12:00,
2013-03-16 05:43:00,64.0,35.0,-100.00,SSW,192,3.0,7.0,34,0.00,,,0.00,1.000000,,2013-03-16 12:43:00,
2013-03-16 05:52:00,64.0,35.0,-100.00,SSW,192,3.0,7.0,34,0.00,,,0.00,1.000000,,2013-03-16 12:52:00,
2013-03-16 06:02:00,64.0,35.0,-100.00,SSW,192,3.0,7.0,34,0.00,,,0.00,1.000000,,2013-03-16 13:02:00,
2013-03-16 06:12:00,64.0,35.0,-100.00,SSW,192,3.0,7.0,34,0.00,,,0.00,1.000000,,2013-03-16 13:12:00,
2013-03-16 06:42:00,62.0,35.0,-100.00,ESE,104,4.0,8.0,36,0.00,,,0.00,1.000000,,2013-03-16 13:42:00,
2013-03-16 06:53:00,62.0,35.0,-100.00,ESE,104,4.0,8.0,36,0.00,,,0.00,1.000000,,2013-03-16 13:53:00,
2013-03-16 07:02:00,62.0,35.0,-100.00,ESE,104,4.0,8.0,36,0.00,,,0.00,1.000000,,2013-03-16 14:02:00,
2013-03-16 07:11:00,62.0,35.0,-100.00,ESE,104,4.0,8.0,36,0.00,,,0.00,1.000000,,2013-03-16 14:11:00,
2013-03-16 07:42:00,60.0,34.0,-100.00,SSW,196,3.0,11.0,38,0.00,,,0.00,10.000000,,2013-03-16 14:42:00,
2013-03-16 07:52:00,60.0,34.0,-100.00,SSW,196,3.0,11.0,38,0.00,,,0.00,10.000000,,2013-03-16 14:52:00,
2013-03-16 08:02:00,60.0,34.0,-100.00,SSW,196,3.0,11.0,38,0.00,,,0.00,10.000000,,2013-03-16 15:02:00,
2013-03-16 08:12:00,60.0,34.0,-100.00,SSW,196,3.0,11.0,38,0.00,,,0.00,10.000000,,2013-03-16 15:12:00,
2013-03-16 08:43:00,63.0,39.0,-100.00,South,190,2.0,5.0,41,0.00,,,0.00,150.000000,,2013-03-16 15:43:00,
2013-03-16 08:53:00,63.0,39.0,-100.00,South,190,2.0,5.0,41,0.00,,,0.00,150.000000,,2013-03-16 15:53:00,
2013-03-16 09:02:00,63.0,39.0,-100.00,South,190,2.0,5.0,41,0.00,,,0.00,150.000000,,2013-03-16 16:02:00,
2013-03-16 09:12:00,63.0,39.0,-100.00,South,190,2.0,5.0,41,0.00,,,0.00,150.000000,,2013-03-16 16:12:00,
2013-03-16 09:43:00,70.0,40.0,-100.00,SW,233,3.0,6.0,33,0.00,,,0.00,348.000000,,2013-03-16 16:43:00,
2013-03-16 09:53:00,70.0,40.0,-100.00,SW,233,3.0,6.0,33,0.00,,,0.00,348.000000,,2013-03-16 16:53:00,
2013-03-16 10:02:00,70.0,40.0,-100.00,SW,233,3.0,6.0,33,0.00,,,0.00,348.000000,,2013-03-16 17:02:00,
2013-03-16 10:12:00,70.0,40.0,-100.00,SW,233,3.0,6.0,33,0.00,,,0.00,348.000000,,2013-03-16 17:12:00,
2013-03-16 10:43:00,78.0,39.0,-100.00,SW,217,6.0,9.0,25,0.00,,,-99.99,621.000000,,2013-03-16 17:43:00,
2013-03-16 10:53:00,78.0,39.0,-100.00,SW,217,6.0,9.0,25,0.00,,,-99.99,621.000000,,2013-03-16 17:53:00,
2013-03-16 11:02:00,78.0,39.0,-100.00,SW,217,6.0,9.0,25,0.00,,,-99.99,621.000000,,2013-03-16 18:02:00,
2013-03-16 11:12:00,78.0,39.0,-100.00,SW,217,6.0,9.0,25,0.00,,,-99.99,621.000000,,2013-03-16 18:12:00,
2013-03-16 11:43:00,82.0,34.0,-100.00,WNW,282,3.0,8.0,18,0.00,,,0.00,791.000000,,2013-03-16 18:43:00,
2013-03-16 11:53:00,82.0,34.0,-100.00,WNW,282,3.0,8.0,18,0.00,,,0.00,791.000000,,2013-03-16 18:53:00,
2013-03-16 12:02:00,82.0,34.0,-100.00,WNW,282,3.0,8.0,18,0.00,,,0.00,791.000000,,2013-03-16 19:02:00,
2013-03-16 12:12:00,82.0,34.0,-100.00,WNW,282,3.0,8.0,18,0.00,,,0.00,791.000000,,2013-03-16 19:12:00,
2013-03-16 12:42:00,84.0,30.0,-100.00,WNW,282,6.0,12.0,14,0.00,,,0.00,900.000000,,2013-03-16 19:42:00,
2013-03-16 12:52:00,84.0,30.0,-100.00,WNW,282,6.0,12.0,14,0.00,,,0.00,900.000000,,2013-03-16 19:52:00,
2013-03-16 13:02:00,84.0,30.0,-100.00,WNW,282,6.0,12.0,14,0.00,,,0.00,900.000000,,2013-03-16 20:02:00,
2013-03-16 13:12:00,84.0,30.0,-100.00,WNW,282,6.0,12.0,14,0.00,,,0.00,900.000000,,2013-03-16 20:12:00,
2013-03-16 13:42:00,85.0,37.0,-100.00,West,261,7.0,11.0,18,0.00,,,0.00,933.000000,,2013-03-16 20:42:00,
2013-03-16 13:52:00,85.0,37.0,-100.00,West,261,7.0,11.0,18,0.00,,,0.00,933.000000,,2013-03-16 20:52:00,
2013-03-16 14:02:00,85.0,37.0,-100.00,West,261,7.0,11.0,18,0.00,,,0.00,933.000000,,2013-03-16 21:02:00,
2013-03-16 14:11:00,85.0,37.0,-100.00,West,261,7.0,11.0,18,0.00,,,0.00,933.000000,,2013-03-16 21:11:00,
2013-03-16 14:43:00,88.0,36.0,-100.00,West,275,8.0,12.0,16,0.00,,,0.00,898.000000,,2013-03-16 21:43:00,
2013-03-16 14:52:00,88.0,36.0,-100.00,West,275,8.0,12.0,16,0.00,,,0.00,898.000000,,2013-03-16 21:52:00,
2013-03-16 15:03:00,88.0,36.0,-100.00,West,275,8.0,12.0,16,0.00,,,0.00,898.000000,,2013-03-16 22:03:00,
2013-03-16 15:12:00,88.0,36.0,-100.00,West,275,8.0,12.0,16,0.00,,,0.00,898.000000,,2013-03-16 22:12:00,
2013-03-16 15:42:00,89.0,34.0,-100.00,WSW,239,7.0,12.0,14,0.00,,,0.00,794.000000,,2013-03-16 22:42:00,
2013-03-16 15:52:00,89.0,34.0,-100.00,WSW,239,7.0,12.0,14,0.00,,,0.00,794.000000,,2013-03-16 22:52:00,
2013-03-16 16:02:00,89.0,34.0,-100.00,WSW,239,7.0,12.0,14,0.00,,,0.00,794.000000,,2013-03-16 23:02:00,
2013-03-16 16:12:00,89.0,34.0,-100.00,WSW,239,7.0,12.0,14,0.00,,,0.00,794.000000,,2013-03-16 23:12:00,
2013-03-16 16:42:00,90.0,36.0,-100.00,SSW,213,7.0,11.0,15,0.00,,,0.00,628.000000,,2013-03-16 23:42:00,
2013-03-16 16:52:00,90.0,36.0,-100.00,SSW,213,7.0,11.0,15,0.00,,,0.00,628.000000,,2013-03-16 23:52:00,
2013-03-16 17:01:00,90.0,36.0,-100.00,SSW,213,7.0,11.0,15,0.00,,,0.00,628.000000,,2013-03-17 00:01:00,
2013-03-16 17:12:00,90.0,36.0,-100.00,SSW,213,7.0,11.0,15,0.00,,,0.00,628.000000,,2013-03-17 00:12:00,
2013-03-16 17:42:00,90.0,38.0,-100.00,SW,229,8.0,11.0,16,0.00,,,0.00,417.000000,,2013-03-17 00:42:00,
2013-03-16 17:52:00,90.0,38.0,-100.00,SW,229,8.0,11.0,16,0.00,,,0.00,417.000000,,2013-03-17 00:52:00,
2013-03-16 18:02:00,90.0,38.0,-100.00,SW,229,8.0,11.0,16,0.00,,,0.00,417.000000,,2013-03-17 01:02:00,
2013-03-16 18:12:00,90.0,38.0,-100.00,SW,229,8.0,11.0,16,0.00,,,0.00,417.000000,,2013-03-17 01:12:00,
2013-03-16 18:42:00,87.0,38.0,-100.00,South,182,7.0,10.0,18,0.00,,,0.00,190.000000,,2013-03-17 01:42:00,
2013-03-16 18:53:00,87.0,38.0,-100.00,South,182,7.0,10.0,18,0.00,,,0.00,190.000000,,2013-03-17 01:53:00,
2013-03-16 19:02:00,87.0,38.0,-100.00,South,182,7.0,10.0,18,0.00,,,0.00,190.000000,,2013-03-17 02:02:00,
2013-03-16 19:12:00,87.0,38.0,-100.00,South,182,7.0,10.0,18,0.00,,,0.00,190.000000,,2013-03-17 02:12:00,
2013-03-16 19:43:00,83.0,38.0,-100.00,SSW,197,6.0,8.0,20,0.00,,,0.00,19.000000,,2013-03-17 02:43:00,
2013-03-16 19:52:00,83.0,38.0,-100.00,SSW,197,6.0,8.0,20,0.00,,,0.00,19.000000,,2013-03-17 02:52:00,
2013-03-16 20:02:00,83.0,38.0,-100.00,SSW,197,6.0,8.0,20,0.00,,,0.00,19.000000,,2013-03-17 03:02:00,
2013-03-16 20:11:00,83.0,38.0,-100.00,SSW,197,6.0,8.0,20,0.00,,,0.00,19.000000,,2013-03-17 03:11:00,
2013-03-16 20:43:00,80.0,35.0,-100.00,South,184,6.0,7.0,20,0.00,,,0.00,1.000000,,2013-03-17 03:43:00,
2013-03-16 20:53:00,80.0,35.0,-100.00,South,184,6.0,7.0,20,0.00,,,0.00,1.000000,,2013-03-17 03:53:00,
2013-03-16 21:02:00,80.0,35.0,-100.00,South,184,6.0,7.0,20,0.00,,,0.00,1.000000,,2013-03-17 04:02:00,
2013-03-16 21:12:00,80.0,35.0,-100.00,South,184,6.0,7.0,20,0.00,,,0.00,1.000000,,2013-03-17 04:12:00,
2013-03-16 21:43:00,75.0,41.0,-100.00,SSW,207,6.0,13.0,29,0.00,,,0.00,1.000000,,2013-03-17 04:43:00,
2013-03-16 21:53:00,75.0,41.0,-100.00,SSW,207,6.0,13.0,29,0.00,,,0.00,1.000000,,2013-03-17 04:53:00,
2013-03-16 22:02:00,75.0,41.0,-100.00,SSW,207,6.0,13.0,29,0.00,,,0.00,1.000000,,2013-03-17 05:02:00,
2013-03-16 22:12:00,75.0,41.0,-100.00,SSW,207,6.0,13.0,29,0.00,,,0.00,1.000000,,2013-03-17 05:12:00,
2013-03-16 22:42:00,70.0,44.0,-100.00,SW,226,3.0,6.0,39,0.00,,,0.00,1.000000,,2013-03-17 05:42:00,
2013-03-16 22:52:00,70.0,44.0,-100.00,SW,226,3.0,6.0,39,0.00,,,0.00,1.000000,,2013-03-17 05:52:00,
2013-03-16 23:02:00,70.0,44.0,-100.00,SW,226,3.0,6.0,39,0.00,,,0.00,1.000000,,2013-03-17 06:02:00,
2013-03-16 23:12:00,70.0,44.0,-100.00,SW,226,3.0,6.0,39,0.00,,,0.00,1.000000,,2013-03-17 06:12:00,
2013-03-16 23:42:00,68.0,43.0,-100.00,SSE,152,8.0,11.0,40,0.00,,,0.00,1.000000,,2013-03-17 06:42:00,
2013-03-16 23:52:00,68.0,43.0,-100.00,SSE,152,8.0,11.0,40,0.00,,,0.00,1.000000,,2013-03-17 06:52:00,